Location: ?????????
(42.1392°N, 44.1931°E)
Time: 08:58:21
(UTC+00:00)

Cosmos 1408 - Pass Details

Date: 07 June 2020
Orbit: 469 x 495 km, 82.6° (Epoch: 05 July)

Event Time Altitude Azimuth Distance (km) Brightness Sun altitude
Exits shadow 00:15:12 17° 231° (SW) 1,304 4.1 -11.3°
Maximum altitude 00:17:22 30° 283° (WNW) 903 3.6 -11.0°
Drops below altitude 10° 00:20:40 10° 347° (NNW) 1,686 5.7 -10.5°
Sets 00:22:57 0° 358° (N) 2,567 6.9 -10.2°
